| time (UTC) | temp F | wind direction | speed knots | gust knots | rain 1hr in | rain 24hr in | rain mn in | humidity % | barometer mb |
| 20260503224012 | 62 | 315 | 1.7 | 3.5 | 0.00 | 0.00 | 0.00 | 33 | 1013.5 |
| 20260503223511 | 63 | 275 | 3.5 | 5.2 | 0.00 | 0.00 | 0.00 | 32 | 1013.5 |
| 20260503223012 | 63 | 287 | 2.6 | 3.5 | 0.00 | 0.00 | 0.00 | 33 | 1013.6 |
| 20260503222511 | 63 | 280 | 1.7 | 3.5 | 0.00 | 0.00 | 0.00 | 33 | 1013.6 |
| 20260503222012 | 63 | 248 | 5.2 | 7.8 | 0.00 | 0.00 | 0.00 | 34 | 1013.6 |
| 20260503221512 | 63 | 267 | 3.5 | 5.2 | 0.00 | 0.00 | 0.00 | 32 | 1013.7 |
| 20260503221011 | 63 | 347 | 2.6 | 5.2 | 0.00 | 0.00 | 0.00 | 32 | 1013.7 |
| 20260503220511 | 63 | 320 | 2.6 | 4.3 | 0.00 | 0.00 | 0.00 | 31 | 1013.7 |
| 20260503220015 | 63 | 309 | 3.5 | 5.2 | 0.00 | 0.00 | 0.00 | 32 | 1013.8 |
| 20260503215513 | 63 | 294 | 1.7 | 4.3 | 0.00 | 0.00 | 0.00 | 33 | 1013.7 |
| 20260503215011 | 64 | 316 | 3.5 | 8.7 | 0.00 | 0.00 | 0.00 | 32 | 1013.8 |
| 20260503214511 | 64 | 343 | 2.6 | 6.1 | 0.00 | 0.00 | 0.00 | 32 | 1013.8 |
| 20260503214011 | 63 | 299 | 2.6 | 3.5 | 0.00 | 0.00 | 0.00 | 32 | 1013.8 |
| 20260503213511 | 64 | 292 | 3.5 | 7.0 | 0.00 | 0.00 | 0.00 | 32 | 1013.7 |
| 20260503213011 | 64 | 283 | 5.2 | 7.8 | 0.00 | 0.00 | 0.00 | 32 | 1013.9 |
| 20260503212512 | 64 | 264 | 5.2 | 8.7 | 0.00 | 0.00 | 0.00 | 33 | 1013.6 |
| 20260503212012 | 64 | 304 | 3.5 | 5.2 | 0.00 | 0.00 | 0.00 | 34 | 1013.8 |
| 20260503211023 | 63 | 263 | 6.1 | 9.6 | 0.00 | 0.00 | 0.00 | 34 | 1013.9 |
| 20260503210512 | 64 | 275 | 5.2 | 7.0 | 0.00 | 0.00 | 0.00 | 34 | 1013.9 |
| 20260503210012 | 64 | 317 | 2.6 | 6.1 | 0.00 | 0.00 | 0.00 | 32 | 1013.8 |
| 20260503205512 | 64 | 285 | 3.5 | 7.8 | 0.00 | 0.00 | 0.00 | 33 | 1013.9 |
| 20260503205012 | 63 | 312 | 2.6 | 6.1 | 0.00 | 0.00 | 0.00 | 33 | 1013.9 |
| 20260503204511 | 62 | 299 | 5.2 | 9.6 | 0.00 | 0.00 | 0.00 | 32 | 1014.0 |
| 20260503204012 | 62 | 252 | 5.2 | 7.8 | 0.00 | 0.00 | 0.00 | 33 | 1013.8 |
| 20260503203511 | 62 | 295 | 5.2 | 7.8 | 0.00 | 0.00 | 0.00 | 34 | 1013.9 |
| 20260503203012 | 62 | 353 | 1.7 | 3.5 | 0.00 | 0.00 | 0.00 | 34 | 1013.8 |
| 20260503202511 | 63 | 311 | 4.3 | 7.0 | 0.00 | 0.00 | 0.00 | 33 | 1014.0 |
| 20260503202012 | 64 | 308 | 3.5 | 5.2 | 0.00 | 0.00 | 0.00 | 33 | 1014.1 |
| 20260503201512 | 65 | 256 | 7.0 | 13.0 | 0.00 | 0.00 | 0.00 | 33 | 1014.0 |
| 20260503201012 | 64 | 293 | 1.7 | 3.5 | 0.00 | 0.00 | 0.00 | 34 | 1014.1 |
| 20260503200511 | 64 | 278 | 4.3 | 7.8 | 0.00 | 0.00 | 0.00 | 33 | 1014.2 |
| 20260503200013 | 64 | 342 | 5.2 | 8.7 | 0.00 | 0.00 | 0.00 | 32 | 1014.2 |
| 20260503195513 | 65 | 301 | 6.1 | 9.6 | 0.00 | 0.00 | 0.00 | 31 | 1014.3 |
| 20260503195011 | 64 | 291 | 2.6 | 4.3 | 0.00 | 0.00 | 0.00 | 34 | 1014.2 |
| 20260503194511 | 64 | 291 | 3.5 | 7.8 | 0.00 | 0.00 | 0.00 | 34 | 1014.4 |
| 20260503194011 | 64 | 348 | 1.7 | 5.2 | 0.00 | 0.00 | 0.00 | 33 | 1014.4 |
| 20260503193511 | 63 | 330 | 1.7 | 3.5 | 0.00 | 0.00 | 0.00 | 33 | 1014.6 |
| 20260503193011 | 64 | 312 | 3.5 | 7.8 | 0.00 | 0.00 | 0.00 | 32 | 1014.7 |
| 20260503192513 | 63 | 271 | 2.6 | 5.2 | 0.00 | 0.00 | 0.00 | 34 | 1014.5 |
| 20260503192012 | 64 | 303 | 4.3 | 6.1 | 0.00 | 0.00 | 0.00 | 32 | 1014.6 |
| 20260503191513 | 64 | 322 | 5.2 | 7.8 | 0.00 | 0.00 | 0.00 | 32 | 1014.6 |
| 20260503190523 | 64 | 318 | 2.6 | 7.0 | 0.00 | 0.00 | 0.00 | 33 | 1014.7 |
| 20260503190013 | 63 | 74 | 3.5 | 10.4 | 0.00 | 0.00 | 0.00 | 32 | 1014.8 |
| 20260503185512 | 61 | 302 | 2.6 | 5.2 | 0.00 | 0.00 | 0.00 | 37 | 1014.9 |
| 20260503185012 | 61 | 286 | 7.0 | 9.6 | 0.00 | 0.00 | 0.00 | 35 | 1015.0 |
| 20260503184511 | 62 | 311 | 3.5 | 6.1 | 0.00 | 0.00 | 0.00 | 34 | 1015.0 |
| 20260503184012 | 63 | 344 | 2.6 | 6.1 | 0.00 | 0.00 | 0.00 | 32 | 1015.1 |
| 20260503183511 | 63 | 319 | 5.2 | 10.4 | 0.00 | 0.00 | 0.00 | 33 | 1015.1 |
| 20260503183013 | 63 | 314 | 3.5 | 5.2 | 0.00 | 0.00 | 0.00 | 33 | 1015.0 |
| 20260503182511 | 62 | 293 | 3.5 | 6.1 | 0.00 | 0.00 | 0.00 | 34 | 1015.0 |
| 20260503182012 | 62 | 18 | 2.6 | 4.3 | 0.00 | 0.00 | 0.00 | 33 | 1015.1 |
| 20260503181512 | 62 | 306 | 3.5 | 6.1 | 0.00 | 0.00 | 0.00 | 34 | 1015.2 |
| 20260503181012 | 60 | 322 | 3.5 | 5.2 | 0.00 | 0.00 | 0.00 | 35 | 1015.2 |
| 20260503180511 | 62 | 337 | 4.3 | 6.1 | 0.00 | 0.00 | 0.00 | 32 | 1015.3 |
| 20260503180012 | 61 | 320 | 2.6 | 5.2 | 0.00 | 0.00 | 0.00 | 34 | 1015.3 |
| 20260503175513 | 61 | 324 | 1.7 | 3.5 | 0.00 | 0.00 | 0.00 | 33 | 1015.3 |
| 20260503175011 | 61 | 21 | 3.5 | 9.6 | 0.00 | 0.00 | 0.00 | 35 | 1015.3 |
| 20260503174513 | 62 | 268 | 2.6 | 4.3 | 0.00 | 0.00 | 0.00 | 31 | 1015.6 |
| 20260503174012 | 61 | 337 | 3.5 | 5.2 | 0.00 | 0.00 | 0.00 | 33 | 1015.6 |
| 20260503173511 | 60 | 321 | 2.6 | 5.2 | 0.00 | 0.00 | 0.00 | 34 | 1015.5 |
| 20260503173011 | 60 | 280 | 6.1 | 10.4 | 0.00 | 0.00 | 0.00 | 35 | 1015.5 |
| 20260503172513 | 60 | 329 | 5.2 | 9.6 | 0.00 | 0.00 | 0.00 | 33 | 1015.6 |
| 20260503172013 | 60 | 317 | 2.6 | 5.2 | 0.00 | 0.00 | 0.00 | 34 | 1015.6 |
| 20260503171511 | 59 | 293 | 3.5 | 7.0 | 0.00 | 0.00 | 0.00 | 35 | 1015.6 |
| 20260503171011 | 59 | 287 | 2.6 | 3.5 | 0.00 | 0.00 | 0.00 | 38 | 1015.7 |
| 20260503170512 | 60 | 318 | 2.6 | 5.2 | 0.00 | 0.00 | 0.00 | 33 | 1015.6 |
| 20260503151014 | 53 | 13 | 3.5 | 7.8 | 0.00 | 0.00 | 0.00 | 42 | 1017.0 |
| 20260503150514 | 53 | 324 | 4.3 | 8.7 | 0.00 | 0.00 | 0.00 | 41 | 1017.0 |
| 20260503131013 | 48 | 341 | 4.3 | 8.7 | 0.00 | 0.00 | 0.00 | 52 | 1017.3 |
| 20260503130512 | 47 | 317 | 3.5 | 5.2 | 0.00 | 0.00 | 0.00 | 54 | 1017.3 |
| 20260503110511 | 37 | 300 | 1.7 | 3.5 | 0.00 | 0.00 | 0.00 | 69 | 1016.7 |
| 20260503090512 | 38 | 315 | 2.6 | 3.5 | 0.00 | 0.00 | 0.00 | 66 | 1015.7 |
| 20260503081511 | 38 | 299 | 1.7 | 3.5 | 0.00 | 0.00 | 0.00 | 66 | 1015.5 |
| 20260503081012 | 38 | 322 | 1.7 | 3.5 | 0.00 | 0.00 | 0.00 | 67 | 1015.5 |
| 20260503080511 | 38 | 297 | 0.9 | 2.6 | 0.00 | 0.00 | 0.00 | 69 | 1015.5 |
| 20260503072513 | 40 | 327 | 1.7 | 3.5 | 0.00 | 0.00 | 0.00 | 65 | 1015.1 |
| 20260503072012 | 40 | 352 | 1.7 | 4.3 | 0.00 | 0.00 | 0.00 | 64 | 1015.0 |
| 20260503071512 | 40 | 328 | 2.6 | 3.5 | 0.00 | 0.00 | 0.00 | 67 | 1015.0 |
| 20260503071011 | 40 | 311 | 0.0 | 1.7 | 0.00 | 0.00 | 0.00 | 65 | 1015.0 |
| 20260503070513 | 40 | 309 | 1.7 | 3.5 | 0.00 | 0.00 | 0.00 | 65 | 1014.9 |
| 20260503055011 | 42 | 287 | 1.7 | 2.6 | 0.00 | 0.00 | 0.00 | 66 | 1014.9 |
| 20260503054512 | 42 | 0 | 0.0 | 0.0 | 0.00 | 0.00 | 0.00 | 67 | 1015.0 |
| 20260503054014 | 42 | 280 | 1.7 | 1.7 | 0.00 | 0.00 | 0.00 | 65 | 1015.0 |
| 20260503053512 | 42 | 333 | 1.7 | 3.5 | 0.00 | 0.00 | 0.00 | 65 | 1015.0 |
| 20260503053013 | 42 | 313 | 2.6 | 5.2 | 0.00 | 0.00 | 0.00 | 68 | 1015.0 |
| 20260503052511 | 42 | 296 | 0.0 | 0.9 | 0.00 | 0.00 | 0.00 | 67 | 1015.0 |
| 20260503052012 | 42 | 349 | 0.9 | 1.7 | 0.00 | 0.00 | 0.00 | 65 | 1015.0 |
| 20260503051512 | 42 | 315 | 1.7 | 2.6 | 0.00 | 0.00 | 0.00 | 65 | 1015.0 |
| 20260503051012 | 42 | 308 | 1.7 | 2.6 | 0.00 | 0.00 | 0.00 | 64 | 1015.0 |
| 20260503050511 | 42 | 327 | 0.0 | 1.7 | 0.00 | 0.00 | 0.00 | 65 | 1014.9 |
| 20260503050011 | 42 | 306 | 1.7 | 2.6 | 0.00 | 0.00 | 0.00 | 64 | 1014.9 |
| 20260503045511 | 42 | 268 | 0.9 | 1.7 | 0.00 | 0.00 | 0.00 | 65 | 1014.9 |
| 20260503045012 | 43 | 312 | 0.9 | 3.5 | 0.00 | 0.00 | 0.00 | 64 | 1015.0 |
| 20260503044512 | 42 | 335 | 1.7 | 5.2 | 0.00 | 0.00 | 0.00 | 64 | 1015.0 |
| 20260503044013 | 43 | 329 | 0.9 | 1.7 | 0.00 | 0.00 | 0.00 | 64 | 1015.1 |
| 20260503043511 | 43 | 342 | 1.7 | 3.5 | 0.00 | 0.00 | 0.00 | 64 | 1015.1 |
| 20260503043012 | 43 | 24 | 0.9 | 2.6 | 0.00 | 0.00 | 0.00 | 64 | 1015.1 |
| 20260503042512 | 43 | 341 | 2.6 | 5.2 | 0.00 | 0.00 | 0.00 | 64 | 1015.1 |
| 20260503042011 | 43 | 323 | 1.7 | 3.5 | 0.00 | 0.00 | 0.00 | 65 | 1015.1 |
| 20260503041511 | 42 | 335 | 2.6 | 4.3 | 0.00 | 0.00 | 0.00 | 66 | 1015.2 |
| 20260503041012 | 42 | 271 | 0.9 | 2.6 | 0.00 | 0.00 | 0.00 | 67 | 1015.1 |
| 20260503040512 | 42 | 336 | 0.0 | 0.9 | 0.00 | 0.00 | 0.00 | 67 | 1015.2 |
| 20260503040011 | 42 | 323 | 1.7 | 1.7 | 0.00 | 0.00 | 0.00 | 66 | 1015.2 |
| 20260503035513 | 42 | 315 | 1.7 | 5.2 | 0.00 | 0.00 | 0.00 | 68 | 1015.2 |
| 20260503035012 | 42 | 308 | 0.9 | 1.7 | 0.00 | 0.00 | 0.00 | 67 | 1015.1 |
| 20260503034512 | 42 | 328 | 3.5 | 6.1 | 0.00 | 0.00 | 0.00 | 67 | 1015.1 |
| 20260503034013 | 42 | 336 | 1.7 | 5.2 | 0.00 | 0.00 | 0.00 | 68 | 1015.0 |
| 20260503033511 | 42 | 306 | 0.9 | 1.7 | 0.00 | 0.00 | 0.00 | 68 | 1015.1 |
| 20260503033012 | 42 | 321 | 0.9 | 1.7 | 0.00 | 0.00 | 0.00 | 68 | 1015.1 |
| 20260503032512 | 42 | 347 | 1.7 | 2.6 | 0.00 | 0.00 | 0.00 | 68 | 1015.1 |
| 20260503032013 | 41 | 346 | 0.0 | 1.7 | 0.00 | 0.00 | 0.00 | 69 | 1015.2 |
| 20260503031511 | 41 | 341 | 0.0 | 1.7 | 0.00 | 0.00 | 0.00 | 69 | 1015.3 |
| 20260503031012 | 42 | 351 | 0.0 | 0.9 | 0.00 | 0.00 | 0.00 | 69 | 1015.3 |
| 20260503030512 | 42 | 349 | 0.9 | 2.6 | 0.00 | 0.00 | 0.00 | 69 | 1015.3 |
| 20260503030012 | 42 | 327 | 0.9 | 2.6 | 0.00 | 0.00 | 0.00 | 67 | 1015.5 |
| 20260503025512 | 42 | 331 | 0.9 | 1.7 | 0.00 | 0.00 | 0.00 | 68 | 1015.5 |
| 20260503025012 | 42 | 271 | 0.9 | 1.7 | 0.00 | 0.00 | 0.00 | 69 | 1015.6 |
| 20260503024513 | 42 | 326 | 0.9 | 2.6 | 0.00 | 0.00 | 0.00 | 68 | 1015.5 |
| 20260503024013 | 42 | 263 | 0.0 | 1.7 | 0.00 | 0.00 | 0.00 | 68 | 1015.5 |
| 20260503023511 | 43 | 0 | 0.0 | 0.0 | 0.00 | 0.00 | 0.00 | 66 | 1015.6 |
| 20260503023013 | 43 | 267 | 0.9 | 2.6 | 0.00 | 0.00 | 0.00 | 67 | 1015.5 |
| 20260503022511 | 44 | 300 | 1.7 | 3.5 | 0.00 | 0.00 | 0.00 | 64 | 1015.5 |
| 20260503022014 | 44 | 0 | 0.0 | 0.0 | 0.00 | 0.00 | 0.00 | 64 | 1015.5 |
| 20260503021517 | 44 | 13 | 0.0 | 2.6 | 0.00 | 0.00 | 0.00 | 64 | 1015.5 |
| 20260503021011 | 44 | 343 | 2.6 | 5.2 | 0.00 | 0.00 | 0.00 | 62 | 1015.5 |
| 20260503020514 | 45 | 319 | 0.9 | 3.5 | 0.00 | 0.00 | 0.00 | 62 | 1015.3 |
| 20260503020013 | 45 | 351 | 1.7 | 5.2 | 0.00 | 0.00 | 0.00 | 61 | 1015.3 |
| 20260503015512 | 45 | 355 | 1.7 | 5.2 | 0.00 | 0.00 | 0.00 | 61 | 1015.3 |
| 20260503015012 | 45 | 344 | 3.5 | 5.2 | 0.00 | 0.00 | 0.00 | 60 | 1015.2 |
| 20260503014511 | 45 | 347 | 3.5 | 5.2 | 0.00 | 0.00 | 0.00 | 58 | 1015.2 |
| 20260503014012 | 46 | 321 | 2.6 | 5.2 | 0.00 | 0.00 | 0.00 | 58 | 1015.1 |
| 20260503013512 | 46 | 342 | 3.5 | 5.2 | 0.00 | 0.00 | 0.00 | 57 | 1015.0 |
| 20260503013011 | 46 | 342 | 2.6 | 5.2 | 0.00 | 0.00 | 0.00 | 57 | 1015.0 |
| 20260503012513 | 46 | 337 | 4.3 | 7.8 | 0.00 | 0.00 | 0.00 | 56 | 1014.9 |
| 20260503012011 | 46 | 344 | 2.6 | 4.3 | 0.00 | 0.00 | 0.00 | 56 | 1014.9 |
| 20260503011512 | 46 | 342 | 2.6 | 4.3 | 0.00 | 0.00 | 0.00 | 56 | 1014.7 |
| 20260503011012 | 46 | 338 | 1.7 | 2.6 | 0.00 | 0.00 | 0.00 | 56 | 1014.6 |
| 20260503010513 | 46 | 343 | 1.7 | 5.2 | 0.00 | 0.00 | 0.00 | 56 | 1014.6 |
| 20260503010013 | 46 | 320 | 1.7 | 2.6 | 0.00 | 0.00 | 0.00 | 57 | 1014.6 |
| 20260503005511 | 46 | 339 | 1.7 | 3.5 | 0.00 | 0.00 | 0.00 | 57 | 1014.6 |
| 20260503005013 | 46 | 316 | 1.7 | 3.5 | 0.00 | 0.00 | 0.00 | 58 | 1014.6 |
| 20260503004512 | 46 | 287 | 0.9 | 2.6 | 0.00 | 0.00 | 0.00 | 59 | 1014.5 |
| 20260503004011 | 46 | 337 | 1.7 | 3.5 | 0.00 | 0.00 | 0.00 | 58 | 1014.3 |
| 20260503003511 | 47 | 334 | 0.9 | 2.6 | 0.00 | 0.00 | 0.00 | 58 | 1014.2 |
| 20260503003011 | 47 | 307 | 2.6 | 5.2 | 0.00 | 0.00 | 0.00 | 58 | 1014.2 |
| 20260503002512 | 47 | 0 | 0.0 | 0.0 | 0.00 | 0.00 | 0.00 | 58 | 1014.1 |
| 20260503002011 | 47 | 341 | 1.7 | 5.2 | 0.00 | 0.00 | 0.00 | 57 | 1014.1 |
| 20260503001511 | 47 | 316 | 0.9 | 2.6 | 0.00 | 0.00 | 0.00 | 57 | 1014.0 |
| 20260503001012 | 47 | 332 | 0.9 | 1.7 | 0.00 | 0.00 | 0.00 | 56 | 1013.9 |
| 20260503000511 | 48 | 333 | 1.7 | 4.3 | 0.00 | 0.00 | 0.00 | 55 | 1013.9 |
| 20260503000011 | 48 | 320 | 0.9 | 1.7 | 0.00 | 0.00 | 0.00 | 54 | 1013.9 |
| 20260502235511 | 48 | 3 | 2.6 | 5.2 | 0.00 | 0.00 | 0.00 | 54 | 1013.8 |
| 20260502235011 | 49 | 325 | 2.6 | 5.2 | 0.00 | 0.00 | 0.00 | 53 | 1013.8 |
| 20260502234511 | 49 | 318 | 1.7 | 3.5 | 0.00 | 0.00 | 0.00 | 52 | 1013.8 |
| 20260502234013 | 49 | 4 | 1.7 | 2.6 | 0.00 | 0.00 | 0.00 | 54 | 1013.8 |
| 20260502233512 | 49 | 346 | 0.9 | 4.3 | 0.00 | 0.00 | 0.00 | 53 | 1013.7 |
| 20260502233011 | 50 | 331 | 1.7 | 3.5 | 0.00 | 0.00 | 0.00 | 52 | 1013.6 |
| 20260502232512 | 50 | 351 | 1.7 | 3.5 | 0.00 | 0.00 | 0.00 | 52 | 1013.6 |
| 20260502232011 | 50 | 342 | 2.6 | 4.3 | 0.00 | 0.00 | 0.00 | 51 | 1013.6 |
| 20260502231511 | 51 | 0 | 1.7 | 4.3 | 0.00 | 0.00 | 0.00 | 51 | 1013.5 |
| 20260502231011 | 51 | 308 | 2.6 | 6.1 | 0.00 | 0.00 | 0.00 | 51 | 1013.4 |
| 20260502230511 | 51 | 348 | 1.7 | 7.0 | 0.00 | 0.00 | 0.00 | 50 | 1013.4 |
| 20260502230013 | 51 | 2 | 2.6 | 4.3 | 0.00 | 0.00 | 0.00 | 50 | 1013.3 |
| 20260502225511 | 52 | 333 | 1.7 | 4.3 | 0.00 | 0.00 | 0.00 | 48 | 1013.3 |
| 20260502225012 | 52 | 339 | 2.6 | 7.0 | 0.00 | 0.00 | 0.00 | 48 | 1013.2 |
| 20260502224511 | 53 | 352 | 0.9 | 5.2 | 0.00 | 0.00 | 0.00 | 47 | 1013.2 |